Starlink 32833

operational
NORAD ID: 62873 Int'l Des: 2025-022 Owner: SPXS Country: US Constellation: starlink
LEOCIRCULAR

About Starlink 32833

Description loading...

Live Position

Loading 3D Globe...

Upcoming Passes

Altitude History

Altitude vs Time

uPlot chart will show altitude changes over time

Two-Line Element Set

1 62873U 25022V 26033.04328077 .00025946 00000-0 88500-3 0 9992
2 62873 53.1606 295.1129 0001913 55.1506 304.9674 15.30202903 56441
Epoch: Feb 2, 2026 • Age: 25 hours

Current Status

Altitude 476.5 km
Velocity 7.63 km/s
Sub-Earth Point -6.35°S, 120.97°E
Launch Date Feb 2, 2025
Age 0.9 years
Type internet

Technical Details

Classification Payload
Mass 730.00 kg
Dry Mass 700.00 kg
Total Mass 730.00 kg
Length 0.30 m
Diameter 4.10 m
Span 29.00 m
Shape Box + pan
Manufacturer SPXS
Bus Type Starlink V2M
Phase Status In Orbit
Owner/State SPXS/US

Large Constellations

Loading constellations...